Theta_e
310 314 315 315 317 318 319 319 320 321 322 324 327 330 331 332 330 327 327 326 325 323 324 326 326 324 315 311 313 312 311 310 310 310 310 310 311 311 311 311 312 315 315 313 311 311 311 311 313 315 317 317 317 318 317 319 318 320 331 331 322 322 322 320 320 315 316 320 312 309 312 314 315 313 312 314 314 314 314 315 315 316 317 316 317 318 314 312
312 315 315 314 315 317 318 319 320 320 321 323 326 328 329 331 329 325 324 322 322 323 323 325 323 317 311 312 314 311 310 309 308 309 310 310 311 311 311 311 313 316 315 312 311 311 311 311 313 316 317 317 316 317 317 318 317 321 328 326 328 331 320 316 316 311 312 315 311 310 312 313 315 313 313 315 314 314 315 315 315 315 316 316 317 318 316 313
313 316 314 311 313 316 318 318 319 319 319 320 322 324 324 326 325 322 321 321 322 324 325 324 317 311 311 312 312 311 309 308 308 309 311 310 311 312 311 311 314 316 314 311 311 311 311 311 314 316 316 316 316 317 316 317 316 316 321 326 332 327 315 312 313 312 313 313 311 310 311 312 313 313 313 314 313 313 315 315 314 315 316 316 317 317 317 314
314 316 313 309 311 313 315 318 319 319 319 319 319 320 321 322 322 321 322 323 324 326 325 321 313 311 312 312 311 310 308 308 309 310 311 310 311 312 311 311 313 315 313 311 311 311 311 312 313 316 316 315 315 316 316 316 315 315 320 328 323 315 315 314 313 313 312 312 312 311 311 312 312 314 313 313 314 315 314 314 314 315 315 315 316 317 317 315
313 315 311 308 310 309 310 315 317 319 319 320 320 320 321 321 321 322 324 325 326 327 323 315 311 312 312 311 309 308 309 310 310 310 311 311 311 312 312 312 313 314 312 311 311 311 312 313 313 315 315 314 314 316 316 314 315 315 315 317 313 310 315 314 312 314 312 312 312 310 312 313 313 313 313 313 316 317 315 314 315 315 315 315 315 316 316 316
310 312 310 308 310 309 308 310 313 316 318 319 321 322 322 322 323 324 325 326 327 325 317 311 312 312 311 309 308 309 310 311 311 311 311 311 312 312 312 312 314 313 312 312 311 311 313 313 314 315 314 313 313 314 315 313 314 318 314 310 311 311 313 312 312 314 312 312 311 310 312 313 312 313 313 313 315 316 314 315 315 315 315 314 315 315 315 316
308 309 309 309 309 310 309 308 308 311 314 317 318 320 322 323 324 325 325 325 325 320 313 311 313 311 310 309 307 309 310 311 312 313 312 311 312 313 314 314 314 313 312 311 311 313 314 314 314 314 313 313 312 312 314 313 312 319 317 311 311 312 312 312 313 313 312 312 312 312 313 312 313 313 312 312 314 315 314 315 314 315 315 314 315 315 315 315
308 308 309 309 309 310 310 307 306 307 308 310 312 315 317 319 321 321 321 321 318 314 311 311 312 310 309 308 307 309 311 311 311 314 313 311 313 316 315 314 314 312 312 311 311 313 314 314 314 313 314 313 312 312 313 313 313 317 317 311 311 312 312 313 312 312 311 311 312 312 312 312 313 313 311 312 315 314 314 314 314 315 315 315 315 314 315 314
309 309 309 308 309 309 309 307 306 306 306 307 308 309 310 311 313 313 313 313 312 311 311 311 310 309 309 308 307 310 311 310 311 314 314 312 313 315 315 313 313 312 312 311 311 313 314 314 313 314 314 311 312 313 312 314 314 314 314 311 311 311 311 312 312 311 311 311 312 312 312 312 312 312 313 314 314 315 315 314 313 314 315 316 315 314 315 314
309 309 309 309 309 309 308 307 306 306 306 307 307 307 308 308 309 309 310 310 311 311 311 310 309 309 308 308 308 309 310 310 310 313 314 314 314 314 313 312 312 311 312 311 311 313 314 314 313 314 314 313 312 312 311 313 314 312 311 311 311 311 312 312 312 312 312 312 312 314 313 312 311 313 316 316 315 315 315 315 314 314 315 316 315 315 315 314
310 310 310 309 309 309 308 307 307 307 307 308 308 308 309 309 309 309 310 310 310 310 310 309 309 309 308 308 309 309 310 312 311 312 314 315 315 314 312 312 312 312 312 312 311 312 313 314 314 314 315 314 312 312 312 311 313 312 312 313 312 311 312 312 313 312 313 313 312 313 313 312 312 314 316 315 315 315 314 315 315 315 315 315 315 315 314 315
310 310 311 310 309 309 308 307 308 308 308 309 309 309 309 310 310 310 310 310 310 310 310 309 309 308 308 309 309 309 312 314 313 311 313 315 314 313 312 313 313 312 313 311 311 312 312 314 314 314 315 314 313 313 313 312 312 312 313 316 314 313 314 312 312 312 312 314 312 312 313 315 315 315 316 314 314 315 314 315 315 315 315 315 315 315 315 315
310 310 310 310 309 309 309 308 308 308 309 309 309 310 309 310 309 310 310 310 310 310 309 309 308 308 308 309 309 309 311 315 315 313 314 315 314 313 313 314 314 314 313 312 313 312 312 314 314 315 314 313 314 313 313 312 311 313 313 316 317 315 315 311 310 313 312 313 312 311 314 320 320 314 313 314 314 314 314 315 315 315 315 315 315 315 315 315
310 310 310 310 309 309 309 308 308 309 309 309 309 309 309 309 309 310 309 309 310 309 309 309 308 308 308 309 309 309 310 313 316 315 314 314 314 314 314 315 315 315 314 313 314 313 314 316 315 315 314 314 313 312 316 315 315 316 311 317 320 314 316 314 309 312 313 313 312 311 314 320 321 312 311 314 313 314 314 315 315 315 315 315 315 314 315 315
311 310 310 310 310 309 309 308 308 308 309 309 309 309 309 309 309 309 309 309 309 309 309 308 308 308 308 309 309 310 309 310 315 316 313 314 314 314 314 315 316 315 315 314 315 315 315 316 316 315 313 314 313 314 320 319 321 321 313 318 319 312 318 319 309 309 313 313 311 312 315 319 318 311 311 313 313 314 314 315 315 315 315 314 315 315 315 316
312 311 311 310 309 309 309 308 308 308 309 309 309 309 309 309 309 309 310 309 309 308 308 308 308 308 308 309 310 311 310 310 314 315 314 314 314 314 314 315 316 316 315 315 315 315 316 315 315 314 312 313 315 318 321 320 324 323 318 321 320 315 318 318 312 308 311 314 312 312 316 319 317 312 312 314 314 315 314 315 315 315 315 315 315 316 315 316
314 312 311 310 309 309 309 308 308 308 308 308 309 309 309 309 309 309 309 309 308 307 307 308 308 308 309 310 311 312 311 311 314 315 314 314 313 314 314 315 316 316 315 315 315 315 315 315 313 314 314 312 314 319 319 317 320 320 319 322 319 318 317 318 318 310 308 313 315 314 315 319 318 312 312 314 313 313 314 315 316 315 316 315 316 316 316 316
315 313 311 311 309 309 309 309 308 308 308 308 308 308 308 309 308 309 308 307 307 306 307 309 308 309 310 310 311 313 312 311 313 314 314 313 314 314 314 315 315 315 315 315 315 315 315 313 313 318 316 313 314 318 317 317 318 317 318 318 316 317 315 317 321 313 310 314 316 317 316 318 319 313 312 314 312 312 313 314 314 315 315 315 316 315 316 316
316 313 312 311 310 309 309 308 308 308 308 308 308 308 308 307 307 307 307 306 307 308 309 310 309 311 313 310 310 313 313 312 313 314 313 313 314 314 315 315 315 315 314 314 315 314 314 313 314 318 317 315 315 316 318 321 321 319 319 321 322 322 318 318 319 311 309 316 317 318 318 318 320 316 313 314 313 311 312 313 314 315 315 315 315 315 315 315
316 314 312 312 311 310 309 308 308 308 308 308 308 308 307 308 309 309 308 308 309 309 310 311 309 310 313 310 309 313 313 313 313 313 313 314 314 314 315 314 315 315 315 317 318 313 314 317 317 318 316 315 315 315 317 320 319 317 319 322 322 322 319 316 316 311 308 315 318 318 319 318 319 317 312 312 312 310 310 312 314 315 316 315 315 315 315 315
316 314 313 312 312 311 309 309 308 308 308 308 308 308 307 308 310 311 310 309 310 310 310 310 309 310 313 310 310 313 313 313 313 313 313 314 314 315 314 314 316 316 314 314 315 313 314 318 318 319 316 314 314 315 317 317 317 317 319 320 318 318 319 314 314 314 309 313 318 317 320 319 319 318 312 310 312 312 312 312 314 316 315 315 316 315 315 315
315 315 314 313 313 311 310 309 309 308 308 307 307 308 307 308 310 310 309 308 309 310 311 311 309 310 313 311 311 314 314 313 313 313 314 314 315 314 313 315 316 317 314 312 315 315 316 318 318 314 310 310 313 316 319 320 320 321 318 318 318 318 318 314 312 316 313 313 320 319 320 320 319 318 313 309 311 313 312 313 313 314 314 314 314 314 313 313
315 315 314 314 313 312 311 310 309 308 308 307 307 307 307 309 310 309 308 308 308 309 310 311 310 310 312 312 312 314 313 313 313 314 314 314 315 314 313 314 316 318 315 315 318 317 318 320 315 308 307 312 314 315 319 319 319 321 319 318 319 317 318 317 314 315 313 312 318 319 318 318 316 317 315 310 308 310 311 312 313 313 313 314 314 314 314 314
316 315 314 314 314 313 311 310 310 309 308 308 307 308 308 309 310 309 307 307 308 308 310 311 310 310 311 312 312 314 313 313 313 314 314 314 314 314 313 313 315 317 315 316 317 317 318 314 306 305 310 316 315 313 317 319 316 317 321 325 324 319 320 319 315 315 314 311 314 316 316 322 325 323 323 315 307 308 310 310 313 313 313 314 314 314 315 315
316 315 314 314 314 313 312 311 310 309 308 308 307 308 307 309 310 308 307 307 307 308 309 311 311 310 311 312 313 314 313 312 313 313 313 314 314 313 313 312 313 316 315 315 316 317 316 308 305 309 312 316 317 315 318 320 317 315 320 329 328 325 323 319 317 318 318 315 312 311 314 331 336 327 325 322 314 313 310 306 310 312 312 311 312 313 314 315
316 315 314 314 314 313 312 311 310 309 309 308 307 308 307 309 310 307 309 310 309 308 308 310 311 311 311 313 314 313 314 314 313 313 314 314 314 313 313 312 311 314 314 313 314 316 314 308 310 315 314 315 317 315 317 319 319 316 316 321 324 326 324 322 319 317 319 314 309 310 315 324 327 321 320 321 318 319 314 309 309 310 310 310 311 312 313 314
316 315 315 314 313 313 312 311 310 309 309 307 307 308 307 309 309 307 310 311 310 310 309 309 310 311 313 313 314 313 315 316 314 313 314 314 314 312 314 314 312 313 311 311 314 314 312 311 313 315 316 316 316 315 315 316 319 317 315 317 323 325 323 323 322 322 321 313 312 318 319 316 318 317 318 317 317 321 320 319 314 309 310 312 311 312 312 314
317 316 316 315 313 313 312 311 310 309 309 307 308 308 308 309 309 308 311 310 309 310 309 308 309 311 313 314 314 313 314 315 314 314 313 314 314 312 314 314 314 316 310 310 317 313 312 317 315 316 319 316 316 317 314 317 322 318 311 314 320 322 325 328 328 328 319 311 318 323 314 313 321 324 321 315 316 320 321 322 316 309 311 312 312 314 314 315
316 316 316 315 314 313 313 312 310 308 308 308 308 309 308 309 308 308 309 308 308 309 308 309 310 311 313 313 312 312 312 313 314 315 313 314 314 312 314 311 311 316 310 311 320 315 312 315 313 315 318 316 317 315 312 320 325 314 308 313 317 319 324 326 327 325 316 313 324 324 312 312 320 327 326 316 315 320 321 322 314 308 311 312 312 314 315 317
317 316 316 315 315 314 313 313 310 308 309 308 308 309 309 309 309 308 307 308 310 309 306 308 310 311 313 313 312 311 313 313 313 314 313 313 313 311 312 311 310 317 317 317 322 316 310 311 310 312 314 313 312 311 310 316 315 309 313 319 317 321 326 325 325 322 315 319 325 319 314 313 313 324 329 317 316 320 319 321 316 310 312 314 313 314 316 318
316 317 316 315 314 314 313 312 310 309 309 307 309 311 310 311 312 308 306 309 313 310 306 308 310 312 314 314 313 312 314 313 312 313 314 313 313 311 312 312 313 318 321 321 320 316 313 314 313 311 310 309 313 315 310 308 308 312 323 323 316 321 324 324 327 321 317 324 320 313 312 312 312 322 326 319 318 317 314 320 320 312 312 315 315 315 317 318
314 316 316 315 314 314 313 312 309 309 308 308 311 310 309 311 311 309 308 309 312 311 309 309 309 312 315 313 314 314 315 315 311 313 316 315 314 313 313 316 318 318 316 318 319 317 318 318 313 311 310 310 318 322 314 311 314 317 321 321 319 321 319 321 327 321 319 321 313 311 314 312 313 317 317 318 318 314 309 312 315 312 311 315 317 316 317 317
315 315 315 315 315 314 313 311 309 308 309 310 311 310 311 312 309 309 311 310 310 310 310 311 310 312 314 313 314 314 315 315 312 312 315 315 314 313 314 317 318 319 318 319 320 317 320 320 315 315 314 311 315 320 317 317 319 317 316 318 321 321 315 317 321 315 315 318 312 310 313 315 317 315 314 318 313 309 307 308 310 311 312 315 316 317 317 317
316 314 313 314 315 314 312 311 309 308 311 312 310 309 312 312 309 309 310 309 311 310 310 312 312 312 313 313 314 314 314 313 313 313 314 315 315 314 315 313 314 321 322 319 319 318 319 320 318 317 315 313 314 317 319 321 318 315 315 315 318 324 323 320 321 318 319 319 314 311 313 321 322 313 312 313 308 308 311 310 311 311 313 316 316 317 317 316
316 314 313 314 314 313 313 311 308 310 313 312 308 309 311 310 310 310 309 309 314 312 310 311 312 312 313 313 313 313 314 314 313 314 315 315 315 314 314 312 312 320 322 316 316 316 316 316 316 312 309 313 316 313 314 318 318 315 313 313 314 322 324 317 314 316 316 316 315 313 316 324 321 313 312 309 306 308 309 308 310 311 313 316 317 317 316 316
315 313 313 313 312 312 312 310 308 312 313 310 308 309 310 309 311 312 309 311 314 312 310 311 313 314 312 311 313 312 312 315 314 314 315 314 314 314 314 313 312 315 317 316 317 316 315 314 314 312 310 311 313 310 309 313 316 315 313 317 317 316 321 317 308 308 310 312 315 315 317 320 315 313 316 314 313 314 311 308 308 310 314 315 317 318 316 317
313 312 312 312 311 312 311 309 309 313 313 309 308 310 309 309 311 312 310 311 312 310 311 312 312 314 313 311 314 313 313 315 314 314 315 314 314 314 314 313 311 312 314 315 317 318 319 316 313 315 315 310 308 309 308 308 312 318 319 318 313 310 317 319 314 316 316 314 317 315 314 318 316 315 319 317 315 318 319 314 307 307 311 313 315 318 317 317
312 311 311 311 311 311 310 309 310 313 312 309 309 311 310 308 308 310 310 308 310 311 312 312 312 313 313 312 313 313 313 315 314 314 314 313 315 315 314 313 311 310 310 310 312 315 319 318 313 312 315 313 310 312 313 309 309 315 317 313 312 316 318 316 314 319 318 314 320 320 313 312 313 316 321 317 315 320 320 318 314 308 308 310 313 316 317 318
312 311 310 310 310 309 310 310 312 314 311 309 309 310 311 309 306 308 309 308 310 312 312 313 313 312 311 312 313 312 312 313 313 315 314 313 314 313 312 313 312 309 307 309 312 312 316 318 313 311 312 313 314 316 317 317 311 310 310 308 314 322 320 316 314 316 316 314 318 321 318 317 316 317 321 315 316 322 318 319 319 308 306 311 312 315 318 318
311 310 311 310 309 310 311 312 312 313 311 310 309 309 309 308 306 307 308 309 311 311 313 316 315 312 312 312 311 312 312 313 313 314 313 312 312 311 310 312 313 311 307 308 313 313 313 313 311 312 312 313 318 318 316 318 314 312 313 312 315 317 314 315 314 313 318 318 318 318 318 325 324 316 317 315 316 319 317 322 321 309 307 311 310 313 317 317
311 311 311 309 309 311 311 312 313 312 312 311 309 309 309 308 308 308 308 310 310 310 313 317 314 313 315 313 311 312 312 313 312 313 313 311 311 312 311 310 311 311 309 309 313 315 314 312 314 316 315 316 318 315 311 315 315 314 315 314 315 315 314 316 314 312 314 315 317 318 314 322 327 316 316 319 316 312 308 310 312 310 311 312 310 312 314 314
311 312 312 309 310 311 311 312 312 311 312 312 309 309 310 309 309 309 309 310 312 312 312 314 314 314 314 311 311 313 313 313 313 313 314 312 312 313 310 309 309 309 311 312 313 313 314 317 321 320 318 316 314 308 304 309 313 314 315 314 315 315 314 318 318 315 312 309 312 316 314 319 325 316 314 315 308 305 306 304 306 311 314 315 314 314 313 313
309 311 311 310 311 311 311 313 312 311 312 311 308 309 310 310 310 310 310 311 312 312 312 313 313 312 312 313 312 312 312 312 312 312 314 313 311 311 309 308 309 310 311 313 313 310 311 317 319 318 319 318 314 310 306 308 312 314 316 315 315 315 317 321 323 318 315 312 312 314 314 319 325 314 305 304 302 305 309 308 309 313 315 315 316 315 315 314
307 308 309 310 311 311 311 312 312 312 311 309 309 310 309 310 311 310 311 311 312 314 315 315 312 309 314 316 313 312 312 312 312 312 313 314 311 309 308 308 310 311 311 312 313 310 311 316 316 316 319 319 316 316 315 314 314 316 318 315 314 317 317 316 316 313 314 317 316 317 316 316 323 317 307 306 309 309 309 310 312 314 314 314 315 315 315 315
305 306 308 310 311 310 311 311 310 311 311 309 311 312 311 310 309 309 311 312 313 316 315 313 311 312 317 316 311 311 312 313 315 313 311 315 313 308 307 308 309 310 311 311 311 310 313 316 316 314 315 315 315 316 317 317 315 315 318 315 313 316 315 314 316 315 315 317 315 317 317 312 314 317 313 315 317 313 310 311 312 313 313 314 315 315 315 315
304 306 308 309 310 311 310 309 309 310 311 310 310 312 312 311 309 309 311 312 311 312 313 311 311 313 316 313 310 312 312 312 315 314 311 315 316 310 306 307 309 309 310 310 309 312 317 317 314 312 313 312 312 314 316 320 318 316 317 316 314 313 313 316 320 317 316 316 313 314 316 313 313 316 316 318 320 319 314 310 311 314 313 314 315 315 316 315
304 306 306 307 309 311 310 309 308 310 310 310 310 311 311 312 311 310 311 312 311 312 313 313 312 313 314 313 312 313 312 311 313 315 313 312 314 311 307 307 308 308 309 309 308 314 320 316 312 313 314 312 312 316 319 319 318 317 316 315 314 313 313 316 317 315 315 315 314 313 313 313 313 316 319 320 321 322 315 309 312 314 313 313 315 315 316 316
306 306 305 306 308 309 309 309 308 309 310 309 310 311 310 311 312 311 311 310 310 312 313 313 314 315 314 313 313 313 313 312 312 314 314 312 313 313 310 308 308 307 309 309 308 313 317 314 313 314 313 311 313 318 320 318 317 317 316 315 314 313 314 315 314 314 315 314 313 313 314 313 311 314 320 319 316 316 313 311 313 314 313 314 315 314 315 315
306 306 305 306 306 305 307 308 307 309 310 309 310 311 310 310 311 311 312 312 312 313 313 314 317 317 315 314 314 314 313 313 312 314 314 313 314 315 314 313 310 308 309 311 309 309 313 316 315 312 311 312 313 315 318 318 316 316 315 314 314 313 313 314 314 313 313 313 313 314 316 315 311 312 316 314 312 312 311 311 312 312 312 313 313 313 315 314
304 305 306 306 305 303 304 306 307 309 309 308 310 310 310 310 310 311 311 312 313 314 313 314 316 317 314 313 314 314 314 313 314 314 314 314 314 315 316 316 314 311 309 311 310 307 310 317 316 311 311 313 312 313 316 317 317 316 315 313 313 313 313 313 313 314 313 313 313 313 315 315 311 310 311 311 311 311 309 309 311 311 311 311 311 312 313 313
303 304 305 306 306 304 304 305 307 308 309 308 309 309 310 310 309 310 311 310 310 313 313 314 315 316 314 313 314 315 313 312 313 313 312 313 313 313 313 313 314 314 312 312 313 311 311 315 316 313 313 313 313 314 314 313 312 312 313 314 313 313 313 313 313 313 313 313 313 313 314 314 310 309 310 309 309 308 308 309 310 312 312 311 311 311 312 312
302 303 304 306 307 305 304 304 305 307 309 308 308 308 309 310 309 309 310 310 309 310 312 312 314 315 315 314 315 314 311 310 312 311 310 311 311 311 311 310 311 313 313 312 313 314 314 315 316 315 314 314 314 313 312 311 311 311 312 314 314 313 312 313 313 313 313 313 314 314 313 313 312 312 313 312 309 306 307 310 311 312 313 312 312 311 311 311
Wind_Speed
25 24 25 26 26 24 24 27 29 31 32 34 34 33 33 31 30 30 29 28 25 23 20 20 19 18 18 19 17 15 16 16 16 19 22 20 15 14 13 12 12 10 9 10 9 10 10 11 11 10 10 10 9 11 12 9 10 7 4 4 2 3 4 6 8 8 4 2 6 11 16 12 5 9 9 6 5 6 9 12 10 11 14 11 7 5 12 17
26 25 26 26 26 25 25 28 29 29 30 31 32 32 31 30 28 27 25 24 22 22 20 19 19 18 19 18 15 15 17 16 16 20 22 17 14 15 14 13 13 10 10 11 10 11 10 10 12 12 11 9 8 10 10 8 8 4 3 4 3 6 5 7 9 10 4 1 8 12 14 13 7 10 12 5 4 6 7 9 11 11 14 14 10 8 12 16
27 25 26 26 27 27 27 29 29 29 30 30 30 30 30 29 28 26 25 24 22 21 20 19 19 19 18 16 14 16 17 13 16 22 20 16 16 15 14 14 14 11 10 11 11 11 10 9 11 13 11 7 6 9 8 7 6 2 4 3 5 7 4 5 8 9 6 2 9 12 11 11 7 11 12 6 4 4 7 10 11 14 16 15 12 11 13 16
27 24 27 26 25 26 27 29 29 29 30 30 30 29 29 29 27 26 25 24 23 21 20 19 20 20 18 16 16 17 13 8 15 22 18 16 17 15 15 15 15 13 10 11 11 11 10 9 12 13 9 5 5 8 6 5 6 2 5 4 5 6 3 3 5 6 7 5 8 12 9 7 8 11 11 8 5 3 11 16 16 17 16 15 15 13 13 17
28 25 26 26 24 25 26 28 29 30 31 31 30 29 29 28 27 26 25 24 23 21 20 20 21 20 18 16 16 14 7 2 9 18 18 17 17 16 15 15 16 14 11 12 12 12 11 10 13 12 7 3 4 6 4 4 6 4 2 2 5 8 3 2 4 4 7 7 8 12 9 7 9 10 11 11 7 6 11 15 17 18 15 13 15 14 14 18
27 26 26 25 23 23 25 27 28 29 30 31 30 30 29 27 27 26 25 24 22 21 20 21 22 20 18 17 16 14 11 3 3 11 17 18 17 16 16 15 16 15 13 12 13 13 12 12 14 11 6 3 3 4 4 6 6 3 1 1 6 6 3 3 3 3 7 10 11 13 10 9 10 6 9 14 14 10 5 5 9 14 16 14 14 14 15 17
25 26 27 25 23 23 23 26 27 28 29 30 30 29 28 28 27 26 25 23 22 22 22 22 22 21 19 17 16 15 17 11 3 5 16 17 17 16 15 16 16 15 15 14 15 15 13 14 14 10 6 4 3 3 4 7 3 3 2 2 5 4 3 2 2 3 6 10 11 13 10 8 10 6 5 14 21 16 9 6 5 9 14 15 15 15 15 15
24 26 26 25 24 23 24 25 25 26 26 27 27 27 27 27 27 26 25 24 24 24 23 23 22 21 20 17 16 13 18 20 7 4 13 16 16 16 15 15 15 15 16 15 15 16 13 14 15 10 5 2 4 5 6 6 1 2 3 4 5 4 4 4 3 5 5 7 10 11 8 5 8 5 4 14 18 16 16 15 10 8 11 15 17 16 16 17
23 25 26 25 25 25 25 25 25 25 25 25 25 25 26 26 26 26 26 25 25 25 24 22 21 22 20 17 14 9 15 22 11 5 10 16 16 15 15 15 15 16 16 15 16 17 14 13 16 11 3 4 7 6 8 6 1 2 5 7 7 5 5 6 5 7 6 8 10 9 4 2 5 3 7 15 16 14 16 17 16 13 10 13 17 18 17 18
23 24 24 24 25 25 26 25 25 24 24 25 25 25 25 25 25 26 25 26 26 25 23 21 22 22 19 17 12 6 13 21 16 9 9 15 16 15 15 14 15 15 15 16 17 17 15 12 14 10 3 6 8 5 7 4 2 7 11 10 8 6 5 5 5 7 7 7 7 7 3 1 3 1 6 8 8 12 16 16 17 16 13 12 14 18 19 18
23 23 23 23 23 24 25 26 25 25 24 25 25 25 25 25 25 25 24 24 25 23 22 21 21 21 18 16 12 8 11 16 17 14 10 13 15 14 15 14 14 14 14 15 16 17 14 10 12 10 2 5 8 5 4 3 5 13 15 9 7 5 5 4 5 6 6 5 3 5 1 2 3 2 9 8 3 5 11 15 17 17 16 13 12 15 18 18
23 24 23 22 22 23 24 25 25 25 25 25 25 25 25 25 24 23 23 23 23 22 21 20 19 20 17 16 16 14 11 10 14 14 11 13 14 13 13 13 13 13 13 13 14 14 13 10 12 10 4 8 8 4 4 7 10 11 10 5 6 7 4 3 3 2 3 3 3 6 1 5 2 8 12 10 9 7 6 12 16 17 17 16 14 14 16 16
22 24 23 23 22 22 23 24 24 24 24 25 25 25 24 24 23 22 22 21 21 21 20 19 18 18 15 12 15 18 13 8 10 12 12 14 13 12 13 12 12 12 11 11 10 11 12 11 11 10 7 9 6 5 8 8 9 6 4 4 3 6 4 2 3 1 3 3 4 6 1 6 8 15 14 9 11 9 8 11 13 15 17 18 18 18 18 18
21 23 24 23 22 22 22 23 24 24 24 25 25 24 24 23 22 21 21 20 20 19 18 18 17 17 14 11 12 16 17 11 9 11 13 14 13 12 12 11 11 11 10 10 10 10 11 10 10 9 8 9 9 11 8 5 5 3 2 3 3 2 4 5 2 2 4 2 3 6 2 6 8 10 9 12 13 10 11 12 11 13 15 18 20 21 22 22
20 21 23 23 22 22 22 23 25 25 25 25 24 24 23 22 21 20 19 18 18 18 17 17 17 14 10 10 11 12 16 15 11 12 14 14 13 12 12 12 11 10 10 10 11 11 11 10 10 8 8 10 14 11 4 4 4 3 2 1 2 3 4 7 2 2 4 2 2 6 2 7 8 7 3 8 12 12 15 15 15 16 16 18 20 22 23 23
18 20 21 22 23 23 22 23 24 25 26 25 24 23 23 21 21 19 18 17 16 16 16 15 16 14 5 6 11 10 13 16 13 13 16 14 13 12 12 12 10 9 9 10 11 11 11 11 10 10 10 10 9 6 5 4 3 4 3 3 2 3 3 4 2 2 1 2 1 2 2 4 4 4 1 3 4 6 11 14 14 14 15 16 18 20 22 22
18 19 20 22 24 23 23 23 24 26 26 25 24 23 22 21 20 19 17 16 15 15 14 13 15 13 6 6 10 9 12 15 14 15 16 15 13 11 12 12 11 10 10 12 12 12 12 11 10 7 5 4 3 5 5 1 3 2 2 2 2 3 3 2 2 3 4 2 1 1 2 6 6 7 6 4 5 7 9 12 11 11 13 14 16 18 19 21
19 20 20 22 23 24 24 23 24 25 25 24 23 22 21 19 19 17 16 16 16 14 12 13 13 8 8 11 9 7 12 15 14 16 16 15 13 12 13 12 11 12 12 12 11 11 9 6 6 4 3 3 2 5 5 4 5 6 3 3 2 2 3 3 2 2 3 2 2 1 4 10 10 12 18 17 12 12 15 16 16 17 17 18 19 21 21 22
20 20 21 22 23 24 24 24 25 25 25 25 23 22 20 18 17 15 17 19 17 10 5 13 17 7 2 10 13 8 10 15 15 17 17 15 14 13 13 11 13 14 13 9 5 7 6 5 5 4 3 4 6 6 7 8 8 9 6 5 5 4 4 5 4 4 0 3 3 5 6 8 10 11 17 21 15 13 18 19 21 23 23 25 25 26 26 27
21 21 22 22 23 24 24 25 25 24 26 25 25 24 19 17 12 8 16 20 16 6 2 14 23 9 5 5 17 13 9 14 16 18 18 15 16 15 12 12 13 11 7 5 4 3 5 4 4 5 7 8 8 6 6 5 6 8 6 4 4 4 2 3 3 5 1 4 3 3 4 8 12 11 15 24 20 15 19 21 24 26 27 28 29 30 30 30
22 21 22 22 22 23 24 26 24 24 25 24 28 25 19 21 11 6 15 13 11 7 4 12 25 16 2 1 15 15 10 13 15 18 18 16 17 14 10 10 9 4 1 3 5 3 4 5 7 6 7 7 6 6 7 6 6 6 6 5 2 2 2 1 1 4 3 1 2 3 4 9 11 11 16 21 16 14 20 21 25 28 28 30 31 31 31 30
23 21 22 22 23 23 24 25 24 25 26 25 30 24 19 25 16 12 18 8 9 11 1 8 22 20 6 1 10 14 11 10 11 18 19 18 18 13 9 7 5 3 1 3 6 3 3 5 7 6 6 8 6 6 8 7 7 5 4 5 2 2 2 2 2 5 5 0 3 4 5 9 11 10 14 18 16 19 23 22 25 27 29 32 32 30 29 29
24 23 22 22 22 23 23 24 24 25 27 28 31 24 19 24 16 15 18 7 8 14 6 9 19 21 12 4 10 13 9 7 9 17 19 18 17 12 9 7 4 4 2 3 6 5 5 6 5 8 10 10 6 4 8 8 5 4 4 5 3 2 2 1 2 4 4 2 1 2 4 8 8 7 11 18 20 22 22 23 26 28 30 34 32 29 27 24
27 24 23 22 22 23 22 23 24 26 27 28 29 24 20 22 17 16 15 4 2 10 9 9 15 21 18 10 11 12 10 7 9 17 20 19 16 10 8 7 5 4 4 5 7 7 4 4 2 9 7 8 7 3 6 7 3 1 3 6 4 4 4 3 2 1 3 4 3 2 4 6 5 5 8 10 9 12 14 16 21 22 23 25 22 18 14 11
28 25 23 23 22 22 23 23 24 27 27 27 29 25 22 22 19 18 11 4 1 5 7 9 10 16 19 14 12 13 10 7 9 17 21 20 17 10 6 7 6 4 4 5 7 5 4 1 6 9 4 6 8 4 5 7 4 1 4 6 6 8 6 3 2 4 4 4 4 4 3 6 5 5 8 6 7 8 9 9 16 16 12 13 12 8 5 5
29 26 25 24 23 22 23 22 23 26 27 29 29 25 23 22 20 19 9 5 2 3 5 10 8 11 16 13 13 14 6 5 9 17 22 20 17 11 6 4 2 2 5 5 5 2 1 1 4 6 6 6 7 5 6 6 6 2 4 5 7 8 8 7 6 5 2 2 3 3 2 5 7 6 8 6 8 11 11 10 16 15 8 10 12 11 9 7
30 28 26 25 24 25 25 22 23 28 26 28 30 25 24 23 20 17 7 6 3 4 6 8 8 11 14 13 18 14 3 5 9 14 21 20 16 11 6 3 2 2 4 4 2 1 2 4 4 5 6 6 6 5 6 7 8 3 2 5 8 9 8 7 7 5 2 3 3 4 3 1 6 6 7 5 7 11 11 10 15 15 12 13 12 11 10 10
32 30 28 28 26 25 24 20 24 30 28 27 30 26 24 24 20 13 6 3 3 5 6 7 8 12 13 16 21 11 5 11 9 9 19 18 14 9 4 5 5 4 2 4 5 2 2 5 5 5 5 4 5 4 4 8 6 3 2 6 7 7 8 5 6 4 0 1 4 4 2 1 6 7 5 5 4 8 10 10 11 14 17 13 8 7 9 11
32 31 30 30 26 22 22 20 22 28 26 27 31 26 23 25 17 8 3 1 3 4 4 8 10 11 13 16 15 7 7 8 4 8 17 15 12 6 3 5 8 7 4 4 5 2 2 3 5 5 5 4 3 2 1 4 3 4 5 7 7 7 6 5 5 4 2 1 4 5 0 1 5 7 4 3 2 7 9 9 8 11 13 7 7 8 10 13
33 35 33 31 29 26 24 22 20 23 24 28 31 27 27 23 12 5 2 4 3 2 3 8 9 10 13 11 4 2 4 2 4 13 13 9 9 6 7 8 8 8 5 7 4 1 2 1 1 2 3 4 5 4 4 3 6 11 7 7 7 6 5 4 3 4 4 2 6 5 2 0 3 7 4 3 4 6 4 5 7 10 12 5 5 9 13 16
34 38 36 32 31 28 25 23 23 24 25 30 31 29 26 14 4 4 6 3 3 2 2 4 4 8 14 12 5 2 2 2 5 12 8 4 6 6 8 6 4 5 3 4 3 4 4 3 1 1 2 6 7 6 7 6 7 8 4 5 5 4 4 5 4 3 2 4 6 4 2 1 3 6 5 4 6 6 5 4 6 8 12 7 3 11 16 18
35 39 38 33 29 26 22 22 24 26 27 31 34 30 19 5 1 5 5 2 3 3 5 5 4 6 12 10 6 4 3 2 3 7 5 4 4 4 4 5 4 4 1 3 1 3 2 1 2 2 1 4 5 5 5 5 4 5 5 6 5 2 3 2 3 1 3 6 3 2 1 2 6 8 8 11 10 6 7 8 8 9 11 7 5 11 16 19
36 36 34 31 27 22 19 19 23 28 31 35 34 21 8 3 7 9 5 3 2 2 5 5 3 5 10 9 5 4 3 1 4 4 2 3 4 4 2 3 6 5 3 5 4 2 1 4 2 2 1 4 4 5 3 2 1 4 5 5 4 3 2 2 4 2 3 4 2 3 2 2 5 5 9 14 10 4 7 11 11 11 9 3 4 9 14 18
36 33 32 30 25 20 17 18 24 30 35 38 28 12 5 5 8 8 7 5 2 1 3 4 6 7 9 6 5 6 4 0 4 4 2 4 5 6 5 4 4 5 4 4 3 5 4 4 3 3 1 3 4 3 5 5 3 2 3 5 5 5 5 4 4 3 4 3 3 3 2 3 3 2 7 12 11 11 13 13 11 10 7 3 4 8 13 16
37 36 36 32 25 21 18 17 25 33 39 35 18 6 8 10 7 7 8 5 2 1 3 3 8 9 5 1 1 5 3 1 4 4 3 6 6 7 6 6 5 4 6 5 3 3 4 4 4 2 1 4 4 2 3 6 3 2 2 5 3 4 5 4 3 5 3 1 2 2 3 5 3 6 9 9 10 12 11 9 7 7 5 5 6 9 13 16
36 35 33 29 24 22 19 20 28 37 39 27 10 6 10 10 6 6 7 5 4 6 7 5 4 6 5 1 1 5 0 2 5 3 3 4 4 7 7 5 6 5 5 6 3 2 3 2 4 3 2 3 2 2 2 3 3 2 2 3 4 4 7 6 1 1 3 1 3 1 4 5 4 7 9 7 7 9 7 6 5 5 7 10 10 10 13 17
35 32 29 27 23 20 22 25 31 38 34 17 8 10 10 9 5 4 5 8 8 9 10 5 2 4 6 3 4 7 2 3 4 3 4 3 2 6 7 5 7 9 7 4 2 3 5 2 4 2 2 2 2 3 6 5 3 4 3 5 4 2 5 5 2 3 4 2 4 1 4 5 2 4 7 6 6 10 8 6 4 2 7 12 13 12 14 17
32 30 27 25 23 23 26 28 32 35 25 9 8 11 8 7 4 5 8 10 10 9 7 6 4 4 7 6 5 8 6 5 5 4 5 4 4 7 9 5 5 10 9 4 2 2 4 3 3 2 2 3 3 4 4 5 4 4 4 3 4 3 2 2 2 1 1 2 4 4 4 4 4 5 5 3 7 10 10 8 4 3 6 8 11 14 17 18
29 25 20 21 24 27 28 28 30 29 16 6 10 11 4 5 3 7 18 15 7 7 6 5 3 2 5 7 6 7 7 7 8 5 4 4 5 5 10 7 3 9 13 7 3 3 4 3 2 2 1 2 3 1 4 1 4 4 3 3 3 3 4 2 2 4 3 3 3 4 4 3 6 6 6 9 10 10 10 9 5 5 8 7 10 16 20 21
29 17 11 20 28 29 29 27 25 19 9 8 12 7 1 4 2 8 21 17 5 3 4 4 4 4 4 4 3 6 6 6 9 7 4 6 5 4 8 9 5 8 11 6 4 3 3 3 4 1 3 1 1 3 6 7 3 3 3 3 2 1 2 2 0 2 4 4 3 2 3 6 6 4 8 11 9 8 9 7 6 4 3 6 11 18 23 23
27 10 7 24 34 32 29 22 15 10 6 9 10 3 0 3 3 8 15 11 4 2 4 6 6 5 6 4 3 5 4 4 7 6 3 6 7 5 9 13 11 10 7 4 3 4 2 3 5 2 0 3 3 3 3 5 5 6 5 6 6 4 4 3 2 1 2 3 4 3 3 8 6 5 7 8 7 7 7 8 8 7 2 3 8 14 20 23
18 3 11 33 38 35 29 15 7 7 5 7 6 3 2 2 5 9 10 6 4 3 4 5 4 4 5 5 5 6 6 5 6 6 4 8 9 6 8 14 18 19 13 4 3 3 3 4 5 2 4 4 3 2 2 3 1 3 4 5 6 4 5 6 6 4 2 1 2 4 2 8 6 5 6 7 7 6 6 8 7 3 3 6 8 9 14 19
8 1 17 39 39 36 26 7 4 8 4 3 3 3 2 1 3 7 7 4 3 2 3 3 3 3 3 4 5 7 8 5 6 8 5 5 7 5 7 16 22 19 11 5 3 4 3 4 4 0 3 3 3 3 2 2 1 2 4 4 5 3 3 5 5 4 5 3 3 3 2 8 6 3 5 8 8 8 8 7 5 3 11 13 11 11 11 13
5 2 16 37 39 34 22 5 7 12 6 2 4 2 2 2 2 5 6 5 3 3 4 3 3 4 3 4 6 8 9 6 4 8 5 1 4 5 10 21 21 14 9 8 9 10 6 3 4 3 2 3 3 3 3 2 2 4 3 3 5 4 6 5 2 4 2 4 7 5 5 8 5 3 3 4 4 6 8 8 7 7 13 17 16 15 13 12
5 3 8 31 40 34 18 4 6 10 5 5 4 3 3 2 1 3 4 3 2 3 5 3 3 5 4 4 5 4 9 6 3 6 4 1 2 3 10 22 21 14 10 9 13 15 8 3 5 7 6 6 6 5 5 4 3 2 1 4 6 7 9 5 3 4 2 5 7 6 7 6 4 5 4 4 3 1 6 9 10 10 13 16 17 16 15 14
4 1 2 18 32 32 18 7 3 4 5 6 5 4 4 2 1 1 3 2 1 2 3 2 4 6 4 5 6 4 9 6 2 4 6 6 3 2 8 20 22 17 10 9 18 16 4 1 6 9 10 12 12 9 4 6 6 5 5 8 8 9 10 7 4 4 5 3 4 8 11 8 6 6 6 6 5 4 7 10 13 14 15 15 17 16 14 14
4 2 2 5 13 18 14 9 5 3 5 9 5 4 7 5 2 1 1 1 2 3 3 3 3 5 5 8 7 5 10 7 2 4 6 7 2 2 3 10 16 16 9 11 21 14 4 3 9 9 13 14 11 8 4 7 9 11 10 11 10 10 11 9 8 10 6 5 5 14 13 12 11 7 8 9 7 5 7 13 17 17 16 16 16 16 15 13
3 2 5 4 3 5 7 9 8 3 4 8 4 2 8 8 5 4 2 1 1 3 2 1 2 6 10 12 8 5 7 6 4 4 4 5 3 2 2 1 5 9 7 8 13 8 4 7 10 8 13 14 7 6 6 7 8 9 12 14 13 14 14 13 15 16 9 7 15 15 11 15 15 9 10 11 10 11 14 17 18 16 14 15 15 14 13 13
2 2 5 6 3 1 2 7 10 5 3 6 3 2 8 10 9 6 2 3 1 2 3 4 5 7 10 11 9 7 8 8 8 8 5 5 4 3 3 1 2 5 5 5 5 3 3 5 6 8 10 14 7 6 6 7 7 6 10 14 15 16 18 18 18 19 15 16 21 12 9 14 16 10 11 16 18 20 17 14 15 16 16 14 13 12 12 14
1 1 4 6 3 2 4 7 9 6 3 3 4 3 6 10 11 6 2 4 5 2 3 6 6 6 6 7 8 8 10 13 12 11 8 6 3 3 4 3 3 3 4 4 2 2 3 3 2 6 5 10 6 6 6 7 7 6 7 9 11 14 16 17 18 19 16 17 19 10 4 13 10 9 13 20 22 19 15 15 19 21 21 18 16 18 19 19
3 1 4 5 2 3 5 4 5 6 4 4 5 5 6 9 11 8 3 3 5 4 6 8 5 5 4 4 7 8 9 11 9 8 13 12 8 9 7 5 8 8 5 6 4 2 4 2 2 5 3 7 5 8 8 4 3 2 2 6 11 13 13 16 17 15 13 13 14 9 9 15 7 11 12 19 20 18 18 22 26 28 29 28 26 27 25 23
7 2 2 4 2 4 6 3 3 5 5 6 8 7 6 6 7 8 5 4 5 7 8 9 7 5 3 5 9 11 7 6 4 4 12 14 8 8 8 8 13 13 8 6 4 3 6 5 2 4 5 6 4 7 7 6 4 3 6 11 17 17 16 15 12 12 12 11 10 10 13 16 7 9 10 12 11 14 21 27 30 34 37 37 34 31 28 25
Wind_Direction
188 188 194 195 192 189 192 193 194 196 198 202 205 208 209 212 214 215 216 216 213 209 209 212 214 218 222 225 223 224 230 234 230 234 240 238 235 233 235 230 218 213 212 212 209 203 192 181 177 167 171 174 170 164 152 149 145 136 107 92 145 176 194 185 181 190 164 213 207 182 181 176 196 200 184 182 191 204 199 199 205 211 218 223 228 210 192 196
183 191 198 196 192 190 193 192 192 194 196 199 201 204 205 207 210 210 211 211 207 204 207 212 218 219 217 221 221 227 236 236 238 238 234 232 233 229 228 220 210 208 207 206 203 201 193 181 174 167 172 172 164 161 155 152 144 118 96 111 196 198 198 190 179 186 170 151 185 178 182 185 201 187 177 186 198 191 196 208 214 221 223 222 224 208 198 199
183 195 200 195 192 193 194 192 192 194 195 198 199 200 202 202 204 205 205 205 205 205 208 212 218 215 211 212 214 226 237 241 250 242 228 223 229 224 219 214 206 203 204 202 198 195 193 183 173 170 173 167 160 165 158 154 157 112 108 125 232 208 200 201 186 192 201 177 164 172 182 194 207 183 180 187 173 185 207 211 212 221 222 217 217 209 203 202
185 195 201 193 190 193 194 193 193 194 196 198 198 199 201 201 202 203 204 205 205 208 210 212 214 212 208 205 209 223 234 255 256 241 225 219 225 219 213 211 206 205 203 196 192 188 186 183 178 176 171 155 150 168 165 161 173 148 130 164 220 183 156 201 197 212 215 197 171 170 169 199 201 183 187 172 143 240 234 221 220 225 223 213 212 212 206 203
191 196 199 194 189 190 192 193 194 195 198 199 199 200 200 200 202 203 204 206 206 210 211 210 209 209 208 205 209 212 203 284 261 237 225 218 218 214 208 208 207 208 201 191 189 182 181 181 177 173 167 145 134 156 179 166 153 127 140 202 165 152 119 170 196 219 205 187 169 163 162 190 184 184 199 180 172 229 236 234 234 236 232 220 217 216 207 203
199 198 197 195 191 187 189 191 194 197 199 199 200 202 201 202 204 204 206 207 208 212 210 204 203 207 208 205 207 198 181 180 296 225 215 213 212 207 205 207 207 207 200 190 185 179 178 176 172 169 154 115 138 154 169 167 153 135 264 240 150 146 102 130 206 211 190 183 173 169 175 183 172 190 211 204 216 224 230 253 246 241 234 228 225 221 214 208
201 198 194 193 191 186 187 191 193 196 198 199 200 202 203 204 206 208 210 210 212 211 204 199 201 207 207 203 205 197 199 215 305 222 203 204 205 201 202 207 205 205 199 189 185 181 176 175 174 168 138 98 161 163 147 162 154 117 159 193 156 149 92 88 215 179 182 195 185 171 174 181 181 194 217 224 234 233 233 252 269 251 233 227 227 226 226 222
199 198 193 191 191 186 188 191 191 193 195 196 197 198 201 203 205 207 209 210 210 206 199 198 202 206 204 203 204 202 212 220 253 256 201 197 199 198 203 206 205 205 197 190 187 182 178 181 178 168 141 129 166 155 143 144 57 82 150 172 137 125 109 78 109 147 165 186 173 163 165 183 195 202 243 240 242 240 238 244 258 261 236 229 228 229 231 229
197 198 194 189 190 188 189 190 189 191 191 190 191 193 195 197 199 200 202 203 202 200 198 200 203 204 203 205 203 206 221 218 229 258 203 198 199 200 205 205 203 202 197 192 188 184 185 185 184 180 175 171 150 145 153 146 264 168 140 147 126 104 110 97 109 126 138 158 160 168 155 140 192 230 267 253 252 247 241 241 245 249 246 236 230 230 232 233
197 198 194 189 191 191 189 188 189 189 187 187 187 188 189 190 191 192 194 197 198 199 199 201 202 201 203 205 198 206 223 218 225 241 211 200 201 202 203 201 200 199 198 195 189 188 188 189 191 183 166 166 146 140 161 151 208 150 121 112 98 93 108 103 116 117 123 136 156 183 178 122 158 195 262 253 255 243 236 235 236 239 244 245 236 231 231 235
197 198 196 191 192 194 190 187 187 187 186 185 185 185 185 186 187 189 192 196 198 199 199 201 202 200 203 205 201 204 218 219 225 232 222 204 200 202 199 196 198 197 198 196 192 191 190 194 192 180 174 173 151 130 155 135 130 135 122 92 43 63 96 81 107 119 118 113 148 170 181 321 103 184 241 232 247 249 229 228 232 234 237 242 241 232 230 235
198 198 197 194 194 194 192 189 188 186 185 184 185 185 184 186 187 189 193 197 200 199 199 201 201 200 202 210 215 212 216 223 223 227 223 205 199 199 196 194 195 195 197 196 193 192 191 194 192 194 192 159 151 117 141 135 126 125 115 92 1 18 50 34 70 112 118 98 130 126 44 299 220 227 240 232 239 254 234 228 232 234 236 238 241 236 232 236
197 198 198 196 194 193 191 189 188 188 187 186 186 185 186 188 188 190 193 196 200 198 197 200 201 200 200 213 224 219 221 232 224 223 214 202 199 197 193 191 190 190 190 187 186 187 187 188 194 200 173 152 146 124 136 122 118 120 82 98 44 19 356 335 33 96 126 107 143 131 230 276 253 242 240 236 236 241 238 228 228 233 237 238 240 242 241 242
194 197 199 197 193 192 190 187 187 188 189 189 188 187 188 188 188 190 192 195 198 197 196 199 199 199 201 215 227 225 228 235 229 218 206 197 196 192 189 187 184 183 182 176 174 179 177 176 186 182 156 148 133 121 114 61 77 105 67 64 70 122 264 309 360 151 137 149 166 131 205 265 268 260 244 238 235 234 234 225 228 237 239 239 240 243 246 248
193 196 198 197 194 191 189 187 187 187 189 190 189 190 189 188 188 188 189 194 196 195 195 196 196 194 203 223 226 226 226 228 230 214 201 196 194 191 185 181 176 173 176 174 172 175 172 172 175 152 127 134 130 116 67 19 30 41 102 322 353 157 252 312 343 156 149 182 148 125 213 269 267 275 269 234 232 235 241 245 252 253 247 243 243 245 249 251
193 196 197 198 195 193 190 187 187 188 188 188 188 189 188 187 186 185 187 191 192 192 190 192 194 189 187 223 220 225 221 219 221 207 197 194 192 190 181 176 172 168 170 173 175 175 170 163 150 129 122 130 128 106 63 42 2 359 103 180 239 165 243 310 341 341 97 149 103 122 223 272 272 264 138 146 216 241 249 258 262 257 252 247 247 249 251 253
192 194 197 198 196 195 190 188 188 187 188 186 187 188 187 185 184 182 182 184 186 183 182 186 187 190 216 230 216 223 216 210 210 201 193 190 191 189 181 173 169 169 164 164 170 168 161 152 139 129 114 112 115 103 93 32 269 282 58 114 207 180 188 269 285 329 31 111 240 22 236 249 267 275 261 252 284 289 277 275 273 265 259 254 253 254 254 255
189 191 194 196 197 196 191 190 188 187 187 185 185 185 183 183 180 177 175 175 172 164 171 179 170 178 237 230 215 217 210 205 202 196 189 187 186 183 181 174 168 166 153 150 160 159 151 134 127 130 57 71 128 124 143 207 191 186 177 134 186 200 201 235 239 280 21 80 221 314 269 264 274 281 278 277 283 286 282 281 280 275 269 264 263 261 259 258
188 189 193 194 196 196 193 192 188 186 185 183 183 179 176 174 168 166 169 168 162 150 170 180 168 154 273 219 207 209 207 199 194 191 188 184 179 177 178 172 169 163 146 139 159 159 139 101 103 136 146 165 187 172 178 196 171 171 173 142 156 176 226 239 242 274 14 121 232 246 249 275 282 283 284 283 285 285 281 281 279 275 270 268 266 263 262 260
190 189 193 195 196 195 194 193 189 186 184 184 181 173 166 160 146 153 168 167 164 140 82 178 179 178 19 192 195 198 198 190 188 187 185 183 177 174 170 162 161 157 145 147 162 153 127 131 173 186 186 187 189 161 142 152 138 138 131 112 150 167 233 243 256 305 19 145 251 270 267 280 277 278 281 283 288 287 280 278 276 272 269 267 266 265 266 265
192 190 193 196 196 195 195 193 190 186 182 183 182 175 170 166 154 160 167 167 176 150 64 176 185 197 327 80 184 184 176 177 184 185 183 183 177 173 171 159 149 145 172 139 123 110 124 170 209 208 189 170 153 124 105 96 91 104 133 139 160 192 228 247 250 321 4 151 263 354 326 277 269 275 277 281 287 277 269 268 269 270 269 268 268 269 271 271
193 193 194 197 197 195 196 193 191 188 183 182 184 182 182 179 178 177 168 163 187 179 85 181 188 200 228 306 180 177 165 163 182 186 182 179 177 179 176 155 140 149 176 111 112 115 165 214 226 194 147 112 92 89 93 89 89 90 118 136 164 214 228 295 312 336 11 112 262 355 342 278 267 270 272 272 266 264 266 261 263 268 269 270 271 273 277 280
195 195 194 198 197 195 195 193 192 190 187 186 184 182 183 183 184 180 170 154 181 190 205 189 190 200 207 203 184 181 172 160 178 185 183 179 178 177 166 145 128 137 150 163 151 153 187 251 236 163 137 116 94 75 94 88 82 93 111 134 179 222 157 216 269 327 11 66 260 319 317 284 277 284 276 267 261 265 269 264 263 263 265 270 273 277 282 285
196 195 196 198 197 195 193 192 194 192 191 190 184 181 182 183 183 176 165 103 138 191 203 196 192 198 199 197 189 188 185 177 182 184 183 182 175 169 164 146 124 134 171 177 154 160 208 281 168 139 131 127 122 110 119 113 81 73 151 146 166 191 170 189 217 355 11 22 34 27 325 296 300 318 284 276 281 276 275 270 266 263 264 271 275 278 282 288
195 195 197 197 197 195 191 193 197 192 191 190 184 180 180 182 180 173 157 61 46 191 200 200 199 201 200 197 190 183 182 188 192 186 184 185 177 163 152 146 143 173 182 141 129 168 240 286 130 130 116 123 129 161 181 150 134 237 213 178 173 171 155 134 104 78 44 355 357 27 330 287 314 315 271 294 341 304 293 287 274 272 270 271 271 258 266 304
194 195 196 197 198 194 189 195 197 191 191 190 183 177 178 180 174 171 154 44 294 212 176 188 193 197 196 192 176 165 171 209 198 189 184 186 184 168 145 139 116 167 166 132 126 176 234 82 107 128 136 135 138 183 204 153 130 191 225 173 148 134 126 127 124 102 106 235 330 43 161 261 313 300 268 307 333 304 304 295 280 282 281 275 269 253 251 268
195 194 195 199 201 197 192 192 192 189 189 189 181 174 177 177 170 171 141 31 273 188 149 177 181 183 187 179 168 159 153 183 173 185 184 182 188 176 166 175 88 130 164 128 144 217 114 107 76 96 118 127 148 197 208 150 134 200 229 129 126 124 132 139 116 102 182 216 333 13 121 232 297 269 271 328 332 306 304 291 287 296 298 285 270 253 237 220
195 194 195 199 204 206 199 195 194 189 186 184 177 172 175 173 166 163 126 44 221 151 142 176 170 175 176 169 173 167 140 156 150 183 183 178 183 172 172 195 147 133 144 125 179 250 87 150 169 131 115 144 178 226 192 138 118 236 208 114 122 121 124 118 95 94 31 359 307 316 95 184 271 272 306 351 330 295 288 278 286 303 307 290 246 219 205 185
196 196 197 199 204 209 206 207 202 189 184 179 173 170 170 167 159 135 102 191 172 111 142 163 159 170 163 160 176 170 137 155 143 166 173 171 178 168 137 172 139 111 54 77 161 217 52 168 192 144 135 178 189 342 125 124 103 171 147 97 83 74 80 80 87 104 51 28 246 261 284 199 264 283 312 3 282 256 267 274 275 303 321 296 216 192 178 163
200 198 197 201 203 201 204 210 199 186 182 175 171 168 162 158 147 122 183 221 158 95 134 155 168 168 151 148 181 175 130 143 124 139 153 159 164 143 111 128 122 105 43 33 89 234 336 64 91 105 136 161 135 64 36 62 129 140 123 77 66 38 38 49 54 84 65 310 254 256 291 168 267 280 256 206 220 215 238 294 290 317 346 346 200 172 157 148
201 199 197 204 207 202 202 203 189 180 179 172 167 162 154 144 110 143 192 208 122 97 103 145 179 157 156 161 172 169 96 43 134 140 145 147 140 124 114 122 100 83 46 32 49 330 359 65 37 31 126 129 109 61 39 56 109 115 93 93 85 7 13 27 1 43 98 254 262 273 297 158 221 260 249 237 253 223 210 261 272 309 346 7 134 150 146 141
199 198 196 200 207 209 207 201 186 176 173 168 163 158 150 127 168 189 199 162 146 187 171 178 202 169 168 163 148 153 115 77 168 152 144 142 147 158 153 168 153 102 161 188 144 346 22 82 301 2 178 166 119 75 42 10 25 74 98 111 97 9 15 3 313 355 215 241 269 282 243 210 233 250 259 266 269 237 220 235 248 287 322 3 110 141 141 139
197 196 198 199 202 206 207 200 186 174 167 162 160 154 135 134 197 205 209 180 199 209 155 155 156 147 153 148 149 161 117 131 190 158 129 130 151 199 243 198 152 126 180 179 132 126 275 306 308 86 238 222 155 122 130 263 254 128 138 133 130 125 106 245 260 286 258 257 301 284 240 259 272 263 249 252 257 254 256 258 264 282 300 328 135 146 142 141
196 197 202 203 200 198 204 200 185 172 163 159 157 149 134 181 200 201 199 208 253 21 102 122 106 121 147 155 182 173 119 92 177 130 111 129 147 197 229 223 167 103 110 148 153 164 181 269 236 172 206 194 171 159 152 144 136 176 167 130 144 158 154 198 215 207 235 269 306 292 254 202 224 268 243 246 266 285 279 268 266 272 272 251 191 164 150 146
193 192 194 195 189 189 201 197 181 171 163 157 156 161 177 197 209 194 189 196 212 82 67 99 116 134 163 105 223 191 147 163 173 124 139 164 173 192 194 200 194 135 129 159 199 167 170 239 261 302 313 146 159 208 129 109 110 240 128 106 159 182 138 137 177 174 168 326 301 260 242 212 215 283 276 268 283 286 273 257 253 252 223 191 195 177 158 153
189 184 187 186 179 183 195 190 177 171 165 159 160 184 195 208 202 182 176 151 151 141 109 86 95 136 167 93 202 219 214 111 157 152 177 189 200 195 190 194 187 179 164 158 169 158 159 249 314 349 18 66 118 197 94 111 168 171 121 168 213 169 113 114 190 66 83 231 265 226 257 289 324 296 295 310 302 294 281 254 247 231 193 179 185 183 168 161
180 177 184 185 180 187 192 184 176 172 170 170 179 188 205 217 182 145 148 131 135 137 125 138 168 144 162 160 187 201 187 119 153 170 183 189 228 195 192 211 185 185 192 151 161 198 155 150 335 25 88 7 18 101 63 45 102 121 172 206 193 127 92 109 164 9 45 241 275 282 242 284 322 277 317 340 287 283 286 265 256 211 196 189 187 193 186 170
173 175 183 187 187 189 185 180 177 174 173 180 201 201 209 212 176 123 138 132 130 139 139 167 172 140 167 176 185 186 172 162 173 184 173 184 244 197 173 196 190 185 193 150 129 208 135 129 323 17 136 308 348 99 86 22 43 114 173 168 120 139 158 101 143 165 128 232 277 299 274 261 208 227 298 291 227 245 261 265 269 169 185 192 185 191 194 182
174 174 184 193 188 181 177 177 176 173 172 179 202 213 202 174 191 160 153 141 127 145 157 179 163 110 170 172 166 174 181 179 172 177 178 183 236 207 174 183 183 182 187 161 144 193 123 135 242 327 270 293 10 120 185 198 25 55 109 108 83 130 162 159 151 164 174 192 243 305 326 266 224 211 225 227 218 221 236 260 265 183 175 198 194 186 190 188
172 167 192 196 181 169 167 171 171 169 177 196 199 213 168 152 195 173 160 148 125 150 162 181 161 134 162 166 155 171 184 180 168 179 201 184 203 234 196 187 164 171 175 136 124 169 113 145 188 317 325 238 181 219 193 173 145 104 123 156 178 72 111 165 124 118 140 157 189 272 304 265 250 201 198 222 229 220 217 237 265 255 189 202 201 191 189 188
167 161 195 181 171 164 160 161 168 172 186 210 206 202 144 160 134 163 165 150 124 133 141 152 153 149 155 154 171 178 160 157 173 185 205 195 201 226 208 190 160 146 145 102 137 171 138 154 161 136 289 198 218 251 202 181 173 161 171 184 180 155 124 155 243 236 119 139 166 175 261 264 252 202 202 219 222 223 222 224 256 298 336 163 178 189 195 196
169 179 180 171 167 166 163 159 180 187 194 213 200 128 127 158 132 160 171 148 118 99 109 130 136 146 160 162 170 167 153 157 184 190 206 213 209 211 205 185 160 153 156 146 166 165 120 114 121 146 213 207 241 282 223 217 185 154 200 196 173 168 141 154 209 218 113 100 141 117 259 269 257 206 208 221 224 245 252 232 243 286 108 135 146 167 190 198
168 9 165 168 169 168 167 166 181 191 232 218 151 87 103 100 112 156 171 167 150 120 115 134 140 153 171 166 153 161 169 174 191 199 210 225 218 216 191 172 161 158 158 146 153 156 124 116 121 109 302 309 324 342 17 30 71 206 237 194 161 184 149 147 183 169 141 177 155 97 280 270 271 231 220 238 251 269 263 231 221 137 119 123 130 139 157 180
176 356 157 170 174 172 172 186 186 193 216 131 116 81 98 81 98 149 170 186 180 141 137 148 164 164 160 144 144 170 184 177 196 210 212 229 217 207 179 173 168 165 175 183 177 174 180 166 132 121 20 350 342 349 338 306 216 206 226 158 148 136 104 108 127 109 140 205 159 145 238 257 278 304 273 264 272 267 240 199 170 145 128 124 124 123 129 146
181 332 156 171 177 178 186 220 191 190 179 126 145 172 142 87 73 137 156 168 166 142 150 168 160 137 128 138 126 157 188 182 178 200 203 233 235 211 182 181 179 181 197 193 164 163 180 186 147 159 178 194 208 212 219 218 186 191 177 147 166 160 144 152 129 108 210 224 159 172 232 253 294 312 309 302 305 230 198 183 172 162 144 134 130 126 128 136
170 324 149 168 177 186 207 245 193 167 164 161 176 184 163 145 126 115 113 132 160 109 103 107 139 121 111 148 134 155 203 208 122 158 196 209 223 272 193 187 188 193 198 170 157 153 143 217 187 192 199 203 209 209 175 124 142 192 189 165 175 179 168 152 118 157 204 175 158 221 236 242 259 270 273 267 244 204 190 192 190 180 169 154 143 143 148 151
161 195 179 162 175 186 209 232 199 156 169 176 181 179 172 166 149 116 106 141 183 151 77 36 141 153 159 162 153 174 200 205 164 160 197 202 203 348 194 188 195 199 189 163 164 150 85 211 206 206 215 222 217 201 165 133 166 191 180 169 177 178 171 162 183 210 184 116 232 238 228 236 241 222 229 239 228 226 219 204 197 190 184 175 163 163 170 174
173 170 170 186 195 183 203 205 183 141 147 170 179 162 169 175 172 171 174 50 111 169 151 48 193 188 174 166 162 169 183 195 213 206 194 182 167 74 87 167 213 204 186 167 171 152 111 204 208 199 219 234 218 170 174 163 175 187 176 178 180 173 176 184 206 219 182 166 240 234 194 222 235 205 211 225 209 212 216 205 200 199 195 188 181 183 187 196
171 129 163 185 206 191 164 153 147 131 128 163 181 154 166 184 191 182 132 89 106 247 175 169 209 204 183 173 168 167 172 180 207 219 188 154 161 136 116 133 233 201 172 153 178 177 149 209 209 179 216 242 216 155 178 175 174 190 184 184 181 176 186 194 207 221 206 208 236 227 170 226 236 197 207 222 214 215 217 208 206 212 214 207 202 209 216 219
170 100 159 168 155 128 131 126 141 161 167 170 202 189 166 184 192 190 126 145 177 214 184 191 200 178 173 184 181 189 193 188 200 209 176 141 152 177 170 181 175 157 155 158 182 212 186 222 192 138 204 252 216 163 195 187 180 199 189 181 182 182 195 204 212 221 216 222 240 240 240 260 243 169 200 225 224 227 232 229 227 230 234 233 230 236 239 235
219 54 137 159 150 143 152 130 139 169 184 193 202 187 174 192 192 182 197 214 190 174 178 186 167 108 117 181 205 226 217 198 208 202 175 172 181 185 191 183 157 147 162 181 172 159 182 216 48 108 185 252 210 181 194 159 124 226 208 174 185 190 202 210 215 218 210 216 237 242 252 260 227 146 194 225 224 229 238 240 242 246 249 250 249 249 246 238
224 256 111 143 153 155 158 135 135 174 195 202 202 193 184 188 172 163 191 249 221 208 201 179 153 126 129 179 214 232 223 201 229 205 186 193 194 186 190 172 160 160 163 170 170 164 168 168 136 146 189 248 231 165 155 109 93 252 238 199 193 198 207 213 222 230 215 203 216 222 231 244 221 152 194 223 212 219 233 238 242 246 248 250 252 251 249 241